Livigno, Italy 16 day weather forecast

Slopes altitude range 1815 m - 2795m

Number of lifts: 30 Pistes: 115km

In some cases the lift and piste totals shown are for the ski domain (e.g. Three Valleys) rather than individual resort (e.g. Courchevel)

Overview

The 16 day weather forecast is fully updated 4 times every day.

    • Sat 20 OCT 2018
    • Sat 20
    • 1C 8C
    • Sun 21 OCT 2018
    • Sun 21
    • 0C 6C
    • Mon 22 OCT 2018
    • Mon 22
    • -2C 6C
    • Tue 23 OCT 2018
    • Tue 23
    • -3C 5C
    • Wed 24 OCT 2018
    • Wed 24
    • -2C 3C
    • Thu 25 OCT 2018
    • Thu 25
    • -2C 7C
    • Fri 26 OCT 2018
    • Fri 26
    • 0C 6C
    • Sat 27 OCT 2018
    • Sat 27
    • -2C 1C
    • Sun 28 OCT 2018
    • Sun 28
    • -8C -3C
    • Mon 29 OCT 2018
    • Mon 29
    • -8C -6C
    • Tue 30 OCT 2018
    • Tue 30
    • -12C -5C
    • Wed 31 OCT 2018
    • Wed 31
    • -15C -6C
    • Thu 01 NOV 2018
    • Thu 01
    • -13C -1C
    • Fri 02 NOV 2018
    • Fri 02
    • -8C 1C
    • Sat 03 NOV 2018
    • Sat 03
    • 1C 3C
    • Sun 04 NOV 2018
    • Sun 04
    • -2C -1C

Date:

Time Type 0°C level Temp Chill Snow Cloud Speed Gust Dir Press
18:00 3526m 8°C 8_8 0cm 0% 8mph 9mph 1026mB
21:00 2809m 0°C 0_8 0cm 25% 8mph 9mph 1027mB
0:00 3479m 0°C 0_8 0cm 44% 8mph 9mph 1026mB
3:00 3428m 0°C 0_10 0cm 96% 10mph 11mph 1024mB
6:00 3000m 0°C 0_11 0cm 70% 11mph 13mph 1024mB
9:00 3220m 0°C 0_13 0cm 0% 13mph 14mph 1022mB
12:00 2989m 6°C 6_13 0cm 0% 13mph 14mph 1021mB
15:00 2802m 6°C 6_13 0cm 0% 13mph 15mph 1021mB
18:00 2181m 6°C 6_8 0cm 0% 8mph 9mph 1024mB
21:00 2107m -2°C -2_5 0cm 2% 5mph 6mph 1025mB
0:00 2168m -2°C -2_5 0cm 2% 5mph 6mph 1025mB
3:00 2211m -2°C -2_6 0cm 1% 6mph 7mph 1024mB
6:00 2186m -2°C -2_6 0cm 0% 6mph 8mph 1024mB
9:00 2797m -2°C -2_7 0cm 0% 7mph 8mph 1023mB
12:00 2996m 6°C 6_8 0cm 0% 8mph 9mph 1022mB
15:00 2867m 6°C 6_11 0cm 0% 11mph 12mph 1022mB
18:00 2092m 6°C 6_11 0cm 0% 11mph 12mph 1026mB
21:00 1983m -3°C -3_10 0cm 22% 10mph 12mph 1029mB
0:00 1899m -4°C -4_9 0cm 25% 9mph 10mph 1029mB
3:00 2046m -4°C -4_9 0cm 33% 9mph 11mph 1028mB
6:00 2009m -4°C -4_10 0cm 32% 10mph 11mph 1028mB
9:00 2622m -3°C -3_10 0cm 0% 10mph 11mph 1027mB
12:00 2918m 5°C 5_10 0cm 32% 10mph 11mph 1025mB
15:00 2769m 5°C 5_12 0cm 65% 12mph 14mph 1024mB
18:00 2111m 5°C 5_12 0cm 57% 12mph 15mph 1026mB
21:00 2124m -3°C -3_12 0cm 88% 12mph 14mph 1026mB
0:00 2274m -3°C -3_13 0cm 84% 13mph 15mph 1025mB
3:00 2333m -1°C -1_14 0cm 79% 14mph 17mph 1023mB
6:00 2214m -2°C -2_15 0cm 72% 15mph 18mph 1023mB
9:00 2567m -2°C -2_16 0cm 89% 16mph 19mph 1022mB
12:00 2774m 3°C 3_16 0cm 75% 16mph 20mph 1020mB
15:00 2680m 3°C 3_16 0cm 61% 16mph 21mph 1020mB
18:00 2580m 3°C 3_17 0cm 76% 17mph 22mph 1022mB
21:00 2497m 0°C 0_16 0cm 93% 16mph 21mph 1023mB
0:00 2398m -1°C -1_14 0cm 91% 14mph 17mph 1023mB
3:00 2315m -1°C -1_13 0cm 92% 13mph 15mph 1023mB
6:00 2108m -2°C -2_11 0cm 94% 11mph 12mph 1023mB
9:00 3746m -2°C -2_7 0cm 82% 7mph 8mph 1022mB
12:00 3654m 7°C 7_5 0cm 86% 5mph 5mph 1020mB
15:00 3651m 7°C 7_5 0cm 94% 5mph 6mph 1019mB
18:00 3732m 7°C 7_6 0cm 92% 6mph 7mph 1020mB
21:00 2862m 0°C 0_5 0cm 92% 5mph 6mph 1020mB
0:00 2960m 0°C 0_3 0cm 61% 3mph 4mph 1019mB
3:00 2399m 0°C 0_3 0cm 0% 3mph 4mph 1017mB
6:00 2562m -1°C -1_4 0cm 34% 4mph 5mph 1016mB
9:00 3295m 0°C 0_7 0cm 56% 7mph 8mph 1014mB
12:00 2983m 6°C 6_9 0cm 53% 9mph 8mph 1011mB
15:00 2819m 6°C 6_8 0cm 86% 8mph 9mph 1010mB
18:00 2650m 6°C 6_8 0cm 90% 8mph 9mph 1010mB
21:00 2405m -1°C -1_8 0cm 99% 8mph 10mph 1009mB
0:00 2475m -1°C -1_9 1cm 99% 9mph 12mph 1006mB
3:00 2491m 0°C 0_10 1cm 100% 10mph 14mph 1003mB
6:00 2533m 0°C 0_11 2cm 100% 11mph 16mph 1002mB
9:00 2492m 0°C 0_7 5cm 100% 7mph 10mph 1001mB
12:00 2238m 1°C 1_1 6cm 100% 1mph 4mph 1000mB
15:00 1774m -2°C -2_10 8cm 100% 10mph 12mph 1001mB
18:00 1359m -2°C -2_12 6cm 100% 12mph 14mph 1002mB
21:00 1044m -9°C -9_12 5cm 100% 12mph 15mph 1004mB
0:00 948m -10°C -10_11 4cm 100% 11mph 13mph 1004mB
3:00 765m -8°C -8_5 1cm 100% 5mph 8mph 1007mB
6:00 731m -8°C -8_3 1cm 100% 3mph 4mph 1008mB
9:00 1015m -8°C -8_2 0cm 85% 2mph 3mph 1008mB
12:00 1383m -3°C -3_3 0cm 75% 3mph 2mph 1007mB
15:00 1266m -3°C -3_4 1cm 94% 4mph 5mph 1007mB
18:00 1005m -3°C -3_3 1cm 93% 3mph 4mph 1009mB
21:00 753m -7°C -7_2 1cm 83% 2mph 3mph 1010mB
0:00 627m -9°C -9_3 1cm 87% 3mph 4mph 1010mB
3:00 653m -8°C -8_3 1cm 100% 3mph 3mph 1008mB
6:00 618m -8°C -8_3 1cm 98% 3mph 4mph 1006mB
9:00 892m -8°C -8_5 2cm 100% 5mph 7mph 1005mB
12:00 1037m -6°C -6_5 3cm 100% 5mph 6mph 1003mB
15:00 883m -5°C -5_5 4cm 100% 5mph 7mph 1002mB
18:00 652m -5°C -5_1 3cm 100% 1mph 2mph 1003mB
21:00 429m -10°C -10_3 1cm 97% 3mph 4mph 1005mB
0:00 493m -10°C -10_3 1cm 97% 3mph 4mph 1007mB
3:00 456m -9°C -9_3 1cm 98% 3mph 4mph 1008mB
6:00 293m -10°C -10_4 1cm 97% 4mph 5mph 1010mB
9:00 850m -12°C -12_4 0cm 50% 4mph 5mph 1011mB
12:00 1154m -5°C -5_5 0cm 50% 5mph 6mph 1011mB
Morning 0.015625mm 0.125 0m -14°C -14_4 0cm 36% 4mph 4mph 1019mB
Afternoon 0.0208333mm 0 964m -6°C -6_6 0cm 55% 6mph 8mph 1017mB
Morning 0.046875mm 0.0625 0m -14°C -14_6 1cm 61% 6mph 7mph 1027mB
Afternoon 0mm 0 1620m -1°C -1_5 0cm 0% 5mph 8mph 1026mB
Morning 0mm 0 548m -9°C -9_8 0cm 14% 8mph 8mph 1031mB
Afternoon 0.0729167mm 0 2431m 1°C 1_7 1cm 93% 7mph 10mph 1026mB
Morning 1.36458mm 0 2972m 1°C 1_6 0cm 100% 6mph 7mph 1024mB
Afternoon 0.0729167mm 0.0625 2623m 3°C 3_6 0cm 96% 6mph 8mph 1019mB
Morning 0.203125mm 0.3125 1762m -1°C -1_10 2cm 99% 10mph 18mph 1022mB
Afternoon 0.479167mm 0.3125 1734m -1°C -1_7 4cm 100% 7mph 11mph 1023mB
Morning 0.0416667mm 0 1233m -4°C -4_4 1cm 74% 4mph 4mph 1025mB
Afternoon 0mm 0 2819m 3°C 3_2 0cm 8% 2mph 3mph 1020mB

16 day outlook at a glance

Forecast issued: 21/10/2018 03:17:06

Chat

Your comments and questions. In a resort? Let us know what it's like!


Characters left 250

For terms and conditions see Readers Comments on the Cookie and privacy policy page.